Dewpoint
43 43 43 43 42 41 41 41 41 41 42 42 42 43 41 44 43 46 45 46 48 49 49 51 52 55 62 64 63 63 62 62 64 62 61 61 62 63 63 63 63 62 61
42 41 41 40 40 40 40 40 40 40 40 41 41 41 40 43 42 42 42 44 44 45 47 48 49 52 52 55 64 63 62 62 63 59 59 57 58 60 62 63 62 62 62
40 40 38 38 38 38 38 38 38 38 38 39 39 39 39 39 40 39 40 42 43 44 45 46 49 50 51 51 54 62 63 61 61 62 58 54 55 56 59 61 61 62 62
38 38 37 37 37 35 35 35 35 36 37 37 37 38 38 37 38 38 40 41 42 44 45 46 47 48 50 52 53 57 62 62 59 57 58 55 55 52 52 57 59 60 61
38 37 37 36 35 36 35 34 33 34 35 35 36 36 36 37 38 38 38 40 42 43 44 46 46 47 48 50 52 53 56 62 61 57 55 55 54 54 50 49 53 59 61
36 36 37 36 35 33 33 34 33 33 34 34 35 35 35 36 36 37 37 38 39 41 43 45 46 47 48 50 51 52 56 59 60 58 56 54 53 54 52 50 49 51 55
36 35 33 33 33 32 32 33 33 33 33 33 33 34 34 35 35 36 36 37 38 40 41 42 43 45 47 49 50 51 53 57 59 57 56 56 54 54 54 52 51 52 55
33 33 34 32 32 32 32 32 32 32 33 33 33 33 34 34 35 35 35 36 37 38 39 40 41 43 45 47 49 51 52 54 59 57 56 55 55 56 55 54 52 51 53
32 32 32 33 31 31 31 31 31 31 32 32 33 33 33 34 34 34 34 34 35 36 37 38 40 41 43 45 48 52 52 53 57 58 57 56 56 56 56 56 54 52 50
32 32 32 32 32 32 32 30 31 31 31 31 32 32 32 33 32 33 32 32 33 34 35 36 37 39 41 44 45 48 53 53 57 58 57 57 57 56 56 57 56 55 51
31 30 30 31 31 31 31 30 30 30 30 31 31 32 32 31 30 30 30 30 31 32 32 33 35 36 37 39 40 42 53 53 54 57 57 57 57 56 57 57 57 56 55
30 30 30 29 28 29 29 29 29 29 29 31 31 31 31 31 30 29 29 29 29 30 30 31 32 33 34 36 37 38 42 53 54 56 56 55 55 55 56 57 56 56 56
26 26 26 26 27 27 28 28 28 28 29 30 30 30 30 30 30 29 29 29 29 29 29 30 30 31 33 33 34 35 38 44 54 55 56 55 56 56 57 57 57 56 56
25 24 25 25 26 27 27 27 28 28 29 29 29 29 29 30 30 29 28 27 27 27 27 29 29 30 31 31 33 34 39 45 50 55 57 57 56 55 55 56 57 56 56
24 24 24 26 26 27 27 27 27 28 28 28 28 28 28 28 28 28 28 27 27 26 26 27 28 29 30 30 31 33 34 36 38 39 43 50 50 55 55 56 56 55 55
23 24 24 26 26 27 28 28 28 28 28 27 27 26 26 26 26 27 26 27 25 25 25 25 26 28 30 31 30 31 31 31 32 33 34 36 37 44 51 54 54 54 52
23 23 24 26 27 29 29 28 29 26 24 24 24 23 23 23 24 24 24 24 24 24 24 24 25 26 29 31 30 29 29 29 30 30 32 32 33 34 39 39 41 44 46
24 23 25 24 27 28 30 30 30 28 24 24 24 23 21 20 20 21 22 22 21 22 22 23 24 25 27 31 30 29 28 28 28 29 29 31 31 32 35 36 35 33 32
26 26 27 26 27 27 28 30 29 29 25 24 24 24 22 20 19 18 19 20 21 20 21 22 23 23 25 29 30 28 27 27 27 28 28 29 29 31 32 31 33 32 30
27 25 25 24 24 26 27 26 26 25 27 24 24 23 23 21 20 19 19 19 19 20 21 22 23 22 23 25 27 28 27 25 25 26 27 28 29 29 29 27 27 27 27
25 25 24 23 24 25 24 23 22 23 25 26 24 23 23 21 21 21 20 20 20 19 19 20 22 22 21 22 24 24 24 24 23 24 24 26 28 28 27 27 26 25 26
23 23 21 22 22 22 22 22 23 22 23 23 23 23 23 23 22 19 18 19 19 19 19 18 19 21 22 20 20 21 22 22 22 22 23 25 25 26 27 26 27 26 25
20 18 18 19 20 21 21 21 22 21 21 22 22 23 23 23 23 19 16 18 19 19 19 17 17 18 20 21 20 19 19 20 20 21 20 21 22 22 23 25 25 25 24
17 17 18 18 18 19 19 20 21 22 22 21 21 21 22 22 23 19 16 16 18 18 19 16 16 16 17 19 20 19 18 18 18 18 18 18 18 18 20 21 22 23 24
17 17 17 17 17 17 17 18 20 20 19 20 20 19 19 19 20 21 16 15 15 15 16 18 15 15 14 15 16 16 17 17 16 15 15 15 15 16 16 17 19 20 21
14 14 15 14 14 14 15 17 19 19 18 18 16 17 18 17 17 17 14 15 13 13 12 12 12 13 11 11 12 14 14 13 13 11 11 11 12 13 14 15 15 17 18
Wind_Speed
12 16 19 16 14 14 16 16 19 17 16 13 6 5 10 9 11 10 13 13 13 13 13 10 11 13 15 13 15 15 19 18 21 10 6 7 9 11 13 13 14 15 15
13 15 16 19 16 14 14 15 16 15 13 12 8 7 5 3 6 10 12 12 16 15 13 12 11 11 14 15 12 14 13 12 15 18 12 12 10 8 10 10 12 15 14
18 16 16 18 17 17 16 16 15 15 16 14 13 9 7 6 8 15 13 15 16 16 14 14 12 11 10 14 14 12 18 17 10 16 11 4 9 11 8 18 17 14 14
19 17 17 18 19 16 16 17 17 18 19 17 15 15 11 8 9 14 14 16 15 15 15 15 12 13 12 13 14 14 16 17 15 4 8 7 9 7 5 6 11 18 16
18 16 16 16 18 19 14 15 18 21 20 17 16 12 12 10 11 12 17 16 15 16 16 16 17 15 13 13 15 18 18 19 20 15 7 6 9 8 7 11 9 12 22
19 18 17 15 17 17 15 17 16 20 19 19 17 16 16 16 15 15 15 15 15 16 16 16 17 18 17 16 15 17 20 22 22 20 20 17 13 14 11 11 15 22 19
21 20 21 21 17 16 19 15 18 17 17 18 18 19 17 16 15 15 15 18 16 15 17 18 19 18 19 19 19 19 21 22 23 22 22 23 23 17 20 19 19 20 13
14 15 16 17 17 15 12 14 16 16 18 18 17 16 15 12 12 14 16 15 16 17 18 17 18 20 20 20 20 20 19 22 21 24 23 23 22 20 21 25 23 18 15
8 12 12 14 16 16 19 20 19 17 21 18 15 15 15 17 17 16 14 15 16 18 18 19 18 19 19 20 21 20 20 21 23 23 26 26 23 23 22 23 26 25 20
11 12 14 15 15 17 17 20 19 20 19 17 16 15 14 14 15 15 17 18 18 18 19 20 20 20 19 20 22 23 21 22 21 22 25 25 20 20 21 21 23 25 22
9 10 10 11 12 13 14 16 16 16 17 16 15 14 16 16 16 17 17 18 19 20 20 21 20 20 21 21 22 23 22 21 22 21 22 26 25 23 21 23 23 21 16
7 8 9 9 10 12 16 17 17 18 16 16 16 18 18 16 17 20 19 20 20 20 20 20 20 22 22 22 23 24 23 21 21 24 24 27 17 23 23 22 23 22 22
9 9 9 8 8 11 14 15 17 16 14 15 17 18 18 19 19 20 21 20 21 22 22 22 23 24 24 26 26 25 23 22 21 23 23 22 19 23 20 22 22 21 21
8 10 11 14 16 18 17 17 15 14 15 16 17 19 19 19 19 20 21 21 22 23 23 24 24 26 23 27 29 28 21 21 17 13 16 19 22 25 25 23 20 20 18
7 10 10 12 12 11 11 13 14 14 15 18 17 18 18 19 19 20 20 19 20 21 23 25 25 27 26 28 32 26 23 22 19 15 17 12 17 28 26 23 20 19 18
6 8 7 7 8 12 11 12 15 16 15 15 17 16 17 19 19 20 21 20 22 23 24 27 27 28 28 40 39 34 25 23 22 22 21 19 23 15 19 23 20 20 20
6 6 5 6 7 10 10 11 12 13 16 17 17 19 19 19 21 21 22 25 24 23 24 27 27 27 32 43 41 37 25 24 25 25 23 22 22 24 12 11 10 4 3
7 5 4 6 8 7 8 9 11 14 16 17 17 18 19 20 20 21 22 22 20 21 21 25 27 28 31 41 41 33 26 24 25 27 27 21 24 27 20 10 14 16 18
7 7 7 7 9 12 13 8 10 12 16 18 19 18 19 19 21 22 20 19 18 20 22 23 28 30 30 41 41 33 26 25 25 26 29 30 27 26 27 16 16 15 17
8 9 9 10 14 14 14 12 13 13 14 16 16 15 16 18 19 18 19 17 17 18 18 22 25 30 30 38 39 35 25 26 25 24 25 34 34 36 32 20 21 17 16
11 10 11 12 11 11 10 13 13 14 12 11 14 16 16 18 17 16 16 18 17 18 21 23 23 28 30 31 39 38 25 23 22 23 25 25 34 35 33 24 27 16 13
10 9 10 9 10 11 10 12 14 12 12 13 14 15 15 14 15 18 18 18 19 21 22 24 24 25 24 33 35 35 33 30 22 24 23 25 36 34 36 31 30 25 16
9 8 8 8 10 10 11 11 12 12 12 14 15 15 12 14 13 17 19 19 21 22 21 23 23 24 24 23 32 33 33 29 22 21 27 31 32 32 29 34 32 24 20
10 9 10 10 11 10 10 9 12 12 13 14 14 14 14 13 13 15 16 19 21 21 20 21 21 21 22 23 22 23 23 24 23 21 20 22 23 24 24 25 26 23 21
10 10 10 9 8 8 10 12 13 12 11 13 13 13 13 13 13 16 18 18 20 22 19 17 18 21 23 24 26 26 24 22 22 20 21 25 25 25 25 24 24 23 23
10 11 10 8 7 10 12 13 12 12 11 12 12 11 11 12 12 12 14 20 22 23 25 26 23 16 25 28 28 26 28 29 23 22 22 22 22 23 23 23 22 22 23
Wind_Direction
88 75 70 56 47 32 43 54 58 44 39 32 24 32 24 8 9 13 1 355 360 352 345 340 337 335 320 268 234 237 242 222 220 188 211 239 238 230 229 213 213 222 219
94 73 71 66 41 39 37 44 61 57 54 52 41 43 358 333 350 13 356 359 347 340 335 332 323 315 313 316 280 236 244 239 204 234 231 241 233 223 226 236 230 218 210
118 90 68 59 41 31 31 32 39 50 46 46 35 12 29 348 357 359 353 346 336 332 327 320 314 306 296 286 288 275 235 247 231 216 217 161 219 217 173 225 255 234 211
74 68 63 54 54 24 23 26 26 31 36 33 42 39 45 8 343 328 327 334 331 327 326 319 310 301 295 284 280 279 258 236 236 197 201 173 156 186 190 192 194 247 224
60 66 65 59 50 30 4 24 23 31 27 23 31 35 27 2 339 336 331 335 334 326 324 324 321 315 303 290 276 272 265 243 238 208 169 191 197 211 184 204 210 226 233
53 43 38 42 44 44 7 22 19 27 21 22 22 19 19 2 349 346 337 334 329 324 321 321 316 304 299 285 289 281 269 250 228 215 210 192 189 192 208 214 213 224 238
56 33 24 20 21 21 19 15 18 20 21 25 15 16 8 360 346 346 332 330 327 327 322 321 315 310 299 294 287 275 275 267 229 214 215 211 206 201 207 218 223 226 215
27 55 32 13 7 10 6 17 17 16 23 24 16 14 4 352 338 343 337 325 324 319 315 314 309 301 299 296 284 269 267 261 242 222 213 213 216 214 214 212 209 223 222
43 35 34 15 358 2 12 16 6 10 24 19 10 7 2 356 349 344 338 330 325 321 325 319 317 316 309 296 284 276 257 252 246 232 221 220 220 218 213 209 206 210 216
54 42 26 9 354 1 1 12 6 12 11 11 7 5 354 355 355 352 350 344 333 328 326 331 332 325 324 318 312 302 254 247 249 228 228 222 217 211 215 214 211 213 224
73 57 40 4 358 357 3 9 9 11 10 7 9 5 6 5 5 1 358 353 344 340 344 339 335 335 335 332 320 311 276 243 241 241 231 228 223 218 215 215 217 214 205
67 52 37 12 1 358 8 8 11 14 8 3 7 12 11 6 10 8 6 5 357 354 352 346 345 346 341 337 329 320 313 259 239 237 228 231 231 240 226 223 223 210 201
50 35 23 14 4 19 14 15 15 11 4 11 12 9 9 11 13 7 7 5 4 2 2 359 357 353 348 344 336 324 311 304 265 242 229 232 229 235 230 225 222 210 197
39 31 14 13 9 14 10 13 9 10 6 14 17 12 9 4 11 14 14 16 15 10 5 4 4 2 358 353 343 337 330 325 311 297 249 232 219 222 225 221 208 193 183
49 33 21 22 18 17 14 9 11 12 11 20 18 12 8 15 14 15 15 15 17 18 15 12 11 13 11 2 359 354 1 360 349 9 5 332 308 215 213 207 194 188 179
81 66 54 43 26 25 22 17 18 14 17 22 21 13 14 18 10 9 12 11 16 16 16 16 13 14 16 12 10 10 12 14 8 15 7 3 6 349 211 201 194 197 195
119 102 67 46 39 21 20 21 28 26 31 27 21 18 16 15 11 14 15 12 11 11 15 16 13 13 17 17 16 14 11 15 13 18 14 15 8 360 37 68 68 83 247
122 109 78 68 40 28 22 29 39 38 35 32 25 24 23 24 16 17 15 11 7 9 11 17 14 15 17 18 16 13 12 16 15 22 17 15 19 3 16 26 61 42 26
110 85 63 55 33 25 11 32 34 49 41 33 27 22 26 25 25 21 11 8 9 9 9 17 19 18 14 18 19 14 11 12 14 17 20 20 21 15 38 31 45 55 16
104 86 60 45 42 24 18 34 37 36 45 38 30 24 27 29 27 16 13 7 15 13 11 19 22 21 16 17 20 20 10 9 9 16 22 20 24 24 30 35 49 25 23
100 80 62 51 31 19 27 43 43 39 35 43 40 33 27 31 22 15 17 15 12 20 20 22 19 23 19 16 18 19 16 13 10 15 15 17 22 31 35 28 49 28 13
100 84 73 54 34 26 38 40 43 33 37 39 37 36 30 27 22 26 22 21 22 26 24 24 22 18 17 17 16 16 19 17 16 14 12 14 19 23 28 29 31 29 21
111 105 93 72 43 34 36 41 18 36 36 38 32 27 31 25 24 31 26 26 25 25 28 24 21 15 11 13 14 12 13 14 18 18 18 18 20 18 20 22 22 23 22
109 103 90 73 56 39 40 36 28 24 39 37 31 28 30 29 29 43 37 34 30 26 28 29 21 15 13 12 12 12 10 11 13 9 15 19 23 23 21 19 17 18 14
102 98 94 77 54 36 39 31 22 19 42 42 35 32 30 31 34 48 42 41 35 36 30 37 27 17 16 11 16 18 17 16 14 14 20 21 19 19 18 16 15 14 13
98 91 83 83 56 48 42 29 16 22 44 52 41 34 39 38 41 43 42 39 44 42 41 37 38 27 26 21 20 23 25 27 23 30 27 21 15 15 10 11 9 12 11